Lapse_Rate
7.0 6.9 6.9 6.7 6.5 6.6 6.6 6.5 6.4 6.7 6.8 7.0 6.9 6.9 7.0 7.1 7.2 7.8 9.5 9.7 8.2 7.6 8.0 8.4 8.3 7.6 7.4 7.3 6.5 6.9 6.6 6.6 6.3 6.5 6.5 6.5 6.5 6.5 6.5 6.5 6.5 6.5 6.5 6.5 6.5 6.5 6.5 6.9 6.7 6.5 6.6 6.9 7.0 7.0
7.1 6.8 6.7 6.5 6.3 6.5 6.5 6.3 6.5 6.8 6.9 7.1 7.1 7.0 7.0 7.2 7.3 7.5 9.2 9.7 9.5 7.1 7.1 7.6 8.4 9.1 8.7 8.4 7.7 6.8 6.7 6.9 6.9 6.5 6.5 6.5 6.5 6.5 6.5 6.5 6.5 6.5 6.5 6.5 6.5 6.5 6.7 7.1 6.9 7.4 7.5 7.1 7.2 7.0
7.3 6.7 6.5 6.4 6.4 6.4 6.1 6.2 6.3 6.7 7.2 7.3 7.2 7.1 7.1 7.1 7.4 7.8 9.5 9.7 9.0 7.8 8.1 8.5 8.0 9.0 9.4 9.4 8.8 7.1 7.0 6.6 7.1 6.7 6.9 6.5 6.5 6.5 6.5 6.5 6.5 6.5 6.7 6.5 6.6 6.5 6.6 7.0 7.5 7.7 7.8 7.6 7.7 7.7
7.0 6.7 6.4 6.5 6.2 6.2 6.1 6.2 6.4 6.8 7.3 7.4 7.3 7.1 7.1 7.2 7.5 7.7 9.4 9.6 9.1 7.7 7.1 7.5 9.5 8.7 9.4 9.6 9.3 8.7 8.5 8.5 7.1 7.2 6.8 6.5 6.5 6.8 6.5 6.5 6.5 6.7 6.6 6.5 6.5 6.6 6.9 7.2 7.5 7.7 7.8 7.9 8.0 8.2
6.9 7.0 6.7 6.5 6.3 6.3 6.1 6.3 6.6 6.8 7.2 7.3 7.2 7.1 7.4 7.6 7.7 8.1 9.4 9.7 9.8 7.5 7.0 7.1 8.6 9.1 9.3 9.0 8.9 9.0 8.4 8.1 7.6 6.8 6.5 6.4 6.9 6.6 6.6 6.6 6.5 6.8 6.5 6.5 6.5 6.8 6.7 6.9 7.6 8.0 7.5 7.6 7.8 8.0
7.0 6.9 6.8 6.7 6.5 6.4 6.1 6.6 6.7 7.0 7.1 7.3 7.4 7.5 7.5 7.5 7.7 9.0 7.6 9.7 9.6 8.6 7.0 6.5 8.6 8.5 8.9 8.9 8.6 8.4 8.2 7.8 7.2 6.7 6.8 7.1 7.7 6.7 6.5 6.5 6.8 7.3 7.5 7.3 6.9 7.6 7.4 7.6 7.6 8.2 7.8 7.8 8.1 8.1
6.4 6.8 6.7 6.8 6.7 6.3 6.4 6.5 6.9 7.1 7.1 7.2 7.3 7.5 7.6 7.5 8.4 8.3 8.0 7.6 7.8 9.3 7.0 6.8 6.8 8.3 8.4 8.5 8.4 8.1 8.3 7.3 7.4 6.4 6.7 6.9 7.0 6.8 6.5 6.5 6.9 7.4 7.7 7.6 7.7 7.1 7.0 7.6 7.1 7.8 7.9 8.2 7.0 8.4
6.2 6.3 6.6 7.8 7.5 6.9 6.4 6.6 7.1 7.2 7.2 7.2 7.4 7.5 7.7 8.0 8.2 8.3 9.3 8.7 7.3 7.7 8.1 6.5 6.5 7.1 8.5 7.4 6.8 8.1 7.5 7.2 6.8 6.6 6.9 6.8 7.1 6.2 6.5 6.8 7.5 7.8 7.7 7.5 7.3 7.9 7.8 7.7 7.4 7.6 8.1 8.1 8.0 8.0
5.9 6.1 6.0 7.1 7.5 7.1 6.6 7.0 7.3 7.4 7.3 7.5 7.8 8.1 8.2 7.4 7.2 8.9 8.5 8.3 8.5 6.8 6.9 6.9 6.5 6.5 8.1 7.4 7.4 7.3 7.6 6.5 6.3 6.4 6.5 6.7 6.5 6.5 6.6 7.0 7.4 7.6 7.3 7.4 7.3 7.9 8.0 7.6 7.9 7.9 7.9 8.2 7.8 7.9
5.8 6.7 7.3 7.5 7.1 6.9 6.9 7.1 7.3 7.4 7.6 7.9 8.2 7.1 7.0 6.4 8.1 7.8 7.0 7.0 6.2 6.8 7.0 6.8 7.6 6.5 7.2 7.0 6.8 6.8 6.1 6.5 6.5 6.5 7.2 6.6 6.6 7.3 7.6 7.8 7.9 7.8 7.9 7.8 7.0 7.0 7.2 7.3 7.3 7.5 7.7 8.1 7.8 7.9
6.2 6.6 7.1 6.9 6.6 6.8 7.0 7.3 7.4 7.7 8.0 7.8 6.5 6.6 8.1 7.5 8.1 7.1 7.2 6.9 6.9 6.8 7.5 7.5 7.5 6.7 8.1 6.5 6.5 6.9 6.5 6.5 6.5 6.5 6.5 6.5 6.5 6.6 8.0 8.1 7.8 8.2 8.0 7.9 7.1 6.8 6.8 7.5 7.4 7.3 7.6 7.6 7.6 7.7
6.5 7.3 7.2 6.7 6.8 7.1 7.3 7.4 7.5 8.2 8.1 8.7 8.0 7.6 6.6 7.0 7.0 6.5 6.5 6.7 6.5 6.5 7.2 7.0 7.3 7.9 7.7 7.5 6.6 6.7 6.5 6.5 6.5 6.7 6.5 6.5 6.5 7.4 7.6 7.9 7.9 7.3 7.9 6.9 6.8 6.5 7.5 7.7 7.5 7.3 7.4 7.2 7.2 7.6
7.0 7.5 7.2 6.8 7.1 7.4 7.3 7.3 7.8 9.0 7.9 9.1 6.4 6.9 6.5 6.8 6.5 6.5 6.5 6.5 6.5 6.9 7.3 7.3 6.6 7.4 7.7 7.7 6.4 6.5 6.5 6.5 6.8 6.5 6.5 6.5 6.8 7.4 7.6 7.8 8.1 8.2 7.9 7.3 7.3 7.6 7.6 7.4 7.4 7.2 7.0 7.1 7.2 7.1
7.6 7.3 7.1 7.3 7.4 7.2 7.2 7.7 7.9 8.3 7.9 6.4 7.2 6.5 6.5 6.5 6.5 6.5 6.5 6.6 7.3 7.4 7.4 7.4 6.7 6.9 7.2 6.5 6.5 6.5 6.5 6.5 6.5 6.5 6.5 6.5 7.0 7.4 7.8 7.5 7.6 7.7 7.7 7.6 7.2 6.6 6.1 6.1 6.8 6.4 6.1 5.7 5.8 6.1
7.9 7.7 7.5 7.6 7.4 7.3 7.7 7.7 8.0 8.5 7.0 7.1 7.3 6.5 6.5 7.1 7.3 7.3 7.5 7.5 7.8 8.1 7.8 6.6 6.8 6.5 6.5 6.5 6.5 6.5 6.5 6.5 6.5 6.5 6.5 6.9 7.4 8.0 7.8 7.3 7.3 6.5 5.7 5.9 6.0 4.7 3.3 4.5 4.8 4.9 5.1 6.0 5.6 3.6
8.2 8.3 8.5 7.7 7.5 7.6 7.8 7.9 8.5 7.9 6.8 7.1 7.3 6.6 7.1 6.6 6.6 6.9 7.1 7.3 7.9 7.8 7.7 7.4 6.5 6.5 6.5 6.5 6.5 6.5 6.5 6.5 6.4 6.5 7.1 6.7 7.2 7.9 7.9 7.7 6.2 7.1 5.2 5.0 3.8 1.9 1.7 2.1 2.2 3.4 3.7 2.6 2.2 1.8
8.6 7.7 8.6 8.0 7.6 7.7 8.1 7.3 5.5 6.4 7.2 7.1 6.9 7.7 7.2 7.1 6.9 7.2 7.7 7.4 8.2 7.3 6.5 6.7 6.5 6.5 6.5 6.5 6.5 6.5 6.5 6.5 6.9 6.4 5.8 5.9 7.3 7.6 7.9 6.7 5.7 4.5 3.7 3.2 2.9 2.2 1.7 2.1 1.0 1.4 1.9 2.6 2.1 1.6
9.1 9.2 8.4 7.9 8.0 8.3 6.9 6.7 7.0 7.4 6.9 7.4 6.8 7.1 7.6 7.7 7.2 7.5 7.8 8.2 7.7 7.4 7.2 6.6 7.1 6.5 6.5 6.5 6.5 6.5 6.8 6.5 5.9 5.1 6.0 6.3 6.2 7.7 7.3 6.9 6.4 5.9 3.7 2.7 1.3 1.3 0.8 2.3 2.6 2.6 2.4 2.6 1.9 2.6
9.5 9.2 8.2 7.9 8.6 5.9 6.7 6.6 6.8 6.9 7.2 7.5 7.7 7.9 7.9 7.8 8.0 8.2 8.2 8.3 8.3 8.2 7.7 7.1 6.5 6.5 6.5 6.9 6.7 6.5 6.7 6.9 6.3 6.1 4.6 4.4 7.6 7.4 7.5 6.5 5.9 4.6 2.9 2.1 2.0 3.3 4.5 4.8 3.8 3.6 2.4 3.4 3.8 5.7
8.8 8.2 7.9 8.2 7.1 6.9 6.8 7.2 8.2 7.3 6.7 7.3 7.8 7.5 7.7 7.5 7.9 8.0 7.9 8.0 8.0 7.5 6.8 6.6 6.5 6.8 6.5 6.7 6.5 6.8 6.2 6.4 6.0 4.4 4.2 6.5 7.5 7.6 7.2 6.1 4.6 4.8 4.2 5.5 5.9 5.6 5.8 5.5 5.0 4.5 5.3 5.6 5.3 4.9
7.8 8.3 8.0 8.1 7.3 7.4 7.8 7.8 7.5 7.6 7.5 7.2 7.8 7.6 7.4 7.8 7.4 7.3 7.5 8.3 7.3 7.1 6.6 7.4 7.2 7.4 7.1 6.3 6.4 6.0 6.1 6.5 6.8 6.7 7.2 7.2 6.9 8.0 7.2 6.4 6.3 7.3 7.5 7.8 7.7 7.2 6.3 5.9 6.5 7.1 6.7 6.2 5.1 4.7
7.6 8.2 7.0 7.6 6.8 7.3 7.4 8.4 7.6 8.0 7.4 7.3 7.4 7.5 6.9 6.6 6.7 7.2 7.9 7.1 7.0 7.3 7.5 7.3 7.4 7.7 7.5 6.8 4.5 5.8 5.7 6.5 7.2 6.9 6.2 6.2 5.5 7.1 7.3 7.3 7.6 7.9 8.1 8.1 8.3 7.8 7.6 7.9 7.8 7.7 6.1 5.3 4.5 4.0
7.6 7.2 6.7 6.3 6.9 7.2 7.1 8.4 7.0 7.3 6.5 6.6 7.2 6.6 6.6 6.7 7.2 8.1 6.6 7.2 7.4 7.7 8.0 8.0 7.8 7.7 7.5 5.1 4.8 5.3 4.9 6.2 7.3 6.9 6.4 7.6 6.9 6.6 7.9 7.5 8.0 7.9 7.8 8.3 8.5 8.3 8.0 7.7 6.6 5.5 5.0 4.4 3.8 4.2
8.0 6.7 6.9 7.1 7.2 6.6 7.6 6.8 7.4 7.0 7.0 6.6 6.4 6.5 6.5 6.7 7.6 6.9 6.5 6.7 7.2 7.7 7.9 7.8 7.8 7.5 6.1 4.8 4.4 3.5 3.8 6.2 7.4 7.9 7.6 7.8 7.5 7.0 8.5 8.3 8.2 8.3 8.5 8.4 8.2 7.5 7.1 6.2 5.4 5.0 4.1 3.4 3.5 3.5
7.0 6.7 7.0 6.5 7.2 6.7 6.5 6.5 6.5 6.5 6.5 6.5 6.5 6.5 6.5 7.3 6.5 6.5 6.5 6.6 7.1 7.2 7.3 7.7 7.5 7.4 6.9 7.1 5.4 5.0 5.9 7.3 7.3 7.4 7.8 7.8 7.8 7.2 7.6 7.8 8.0 8.3 8.5 7.1 6.9 6.2 5.9 5.3 4.4 3.5 3.1 2.8 3.1 3.8
6.5 6.7 6.7 6.6 6.6 6.5 6.5 6.5 6.5 6.5 6.5 6.5 6.6 6.8 6.9 6.5 6.5 6.5 6.5 6.7 6.7 6.9 4.9 5.2 6.5 7.3 7.1 7.6 6.8 5.8 5.8 7.1 7.6 7.6 7.5 7.8 7.7 6.6 7.0 7.1 6.8 7.4 7.3 6.4 5.4 4.2 4.1 3.8 2.9 3.1 3.6 3.7 3.6 3.4
6.5 6.5 7.3 8.0 7.4 7.3 6.6 6.8 7.0 6.6 6.5 6.5 6.5 6.5 6.5 6.5 6.5 6.5 6.5 4.3 4.9 4.9 6.5 5.6 6.2 7.1 7.7 7.2 6.1 5.4 6.0 7.5 7.3 7.0 7.5 7.9 7.9 8.1 7.8 7.2 7.2 6.6 6.0 4.9 4.1 2.7 1.3 2.1 2.8 3.1 3.1 3.8 3.8 3.4
6.9 6.9 6.5 6.7 6.6 7.3 6.5 6.5 6.5 6.5 6.5 7.0 6.7 6.5 6.5 6.5 6.5 6.4 5.7 5.3 5.2 4.7 5.5 6.7 7.5 7.7 7.2 5.6 4.3 4.9 6.6 6.6 6.5 7.0 7.1 6.9 7.4 7.2 6.9 7.0 5.9 5.1 5.4 4.5 3.5 2.5 2.1 1.9 2.1 2.5 2.9 3.2 3.4 3.5
6.5 7.3 7.1 6.4 6.5 6.6 6.5 6.5 6.5 6.6 6.5 7.1 6.5 6.5 6.6 7.0 5.3 5.9 5.9 5.6 4.7 5.2 5.1 5.0 4.5 4.1 3.8 4.2 4.3 5.3 5.4 6.3 5.9 6.4 6.8 6.7 6.4 6.4 5.8 5.2 4.4 4.0 4.5 4.7 3.4 2.4 1.9 1.9 2.2 2.6 2.9 2.7 3.0 3.4
6.8 7.6 6.7 6.6 6.5 6.5 6.6 6.7 6.7 6.3 7.5 7.6 7.4 7.6 7.7 7.5 6.7 6.1 6.0 6.3 5.6 5.4 4.5 4.1 3.8 4.1 4.1 4.2 4.2 4.6 5.2 5.7 5.6 5.8 7.0 6.9 6.3 5.4 5.0 4.1 3.8 3.6 4.1 2.7 2.0 2.5 2.5 2.6 2.8 3.0 2.8 2.7 2.8 2.8
7.7 7.3 6.8 6.8 6.6 7.0 6.5 6.8 5.0 5.6 6.6 6.8 6.2 7.3 7.3 7.4 7.4 7.8 6.5 6.5 6.1 4.7 4.4 4.5 4.5 4.9 5.2 5.0 4.6 4.3 4.6 4.6 5.3 6.1 6.5 4.5 4.6 4.5 3.8 3.2 2.8 3.4 3.1 1.8 1.6 2.0 2.3 2.5 2.5 2.4 2.4 2.3 2.1 2.1
7.2 6.8 6.7 6.5 6.6 6.7 6.7 7.1 7.3 7.0 7.1 7.0 7.1 7.0 7.5 7.0 7.0 7.2 6.1 5.9 6.4 6.0 5.4 5.0 5.2 5.6 5.8 4.7 4.1 4.1 2.2 2.5 4.9 5.1 4.5 3.2 4.0 3.5 2.7 2.9 2.5 2.5 1.7 1.7 1.9 2.1 2.6 2.3 2.4 2.6 2.4 2.0 1.9 1.9
7.1 6.8 6.8 6.9 6.8 6.7 7.1 7.0 6.9 6.8 6.8 6.9 6.9 7.0 7.0 6.9 6.7 6.2 5.5 5.5 6.2 6.3 6.0 5.7 5.4 4.1 3.5 3.9 3.5 3.0 2.4 2.8 4.0 4.3 3.4 2.9 2.6 2.8 2.7 2.7 2.8 2.1 1.9 2.0 2.3 2.6 2.6 2.5 2.5 2.4 2.1 1.7 1.6 1.8
Wind_Speed
36 35 33 31 29 28 27 24 22 21 21 21 21 20 19 18 16 11 7 13 5 3 12 14 9 8 3 2 3 6 4 3 3 4 4 3 5 7 7 16 16 11 8 4 5 2 11 7 10 5 5 8 10 11
37 35 33 31 30 29 26 24 22 20 20 20 20 20 20 19 18 15 8 13 11 3 5 14 15 14 14 8 6 1 3 5 2 4 5 4 3 4 9 9 13 13 8 6 9 6 4 5 5 7 7 9 9 15
38 37 34 32 31 29 26 23 21 20 20 19 18 18 19 19 19 17 8 8 3 4 8 13 14 17 15 13 8 3 2 3 3 5 5 4 8 6 6 14 15 12 11 7 9 11 9 8 5 9 10 10 12 14
38 36 36 34 31 28 25 23 21 20 20 19 18 17 18 19 20 19 8 10 5 3 5 10 12 15 21 16 17 16 12 5 2 2 3 4 4 6 5 8 11 9 12 10 9 11 11 9 10 9 13 13 14 15
36 36 35 34 31 28 25 23 21 20 18 17 16 16 16 18 18 16 15 14 12 5 3 6 16 15 13 15 19 16 14 12 4 2 3 2 6 6 6 8 10 10 7 8 7 11 9 11 12 12 14 14 15 16
39 37 35 33 31 28 26 23 21 20 18 17 16 16 18 19 18 8 3 11 18 6 3 4 8 16 15 15 14 15 10 7 3 2 3 4 8 5 4 8 14 16 16 10 9 13 11 8 16 16 13 14 14 15
34 36 36 33 31 28 25 23 21 20 18 17 16 17 19 20 15 6 3 3 5 11 3 4 5 13 20 16 10 7 10 4 5 2 4 4 4 5 5 12 14 16 20 11 7 6 6 10 14 15 14 15 13 15
39 37 36 31 30 28 25 23 21 19 17 16 16 17 17 17 13 8 14 11 5 4 4 4 5 7 7 9 10 8 6 7 5 3 3 7 3 3 7 19 22 22 15 16 12 7 6 9 15 15 15 15 16 15
38 35 35 34 29 26 25 23 22 19 17 15 13 12 6 4 4 8 0 4 6 3 3 5 7 6 6 10 7 6 6 5 3 5 4 5 5 6 10 16 18 21 17 9 14 12 12 12 16 17 18 17 17 16
37 38 34 28 28 27 26 24 22 20 18 18 9 3 3 5 8 13 2 2 2 5 4 4 7 11 1 3 5 6 5 5 4 6 5 3 5 20 18 19 16 16 19 17 14 13 13 13 16 19 19 16 16 16
38 35 34 32 30 28 26 25 23 22 21 5 4 5 2 24 6 3 5 5 6 5 6 7 11 11 10 6 2 4 3 4 5 6 6 6 8 17 20 21 21 18 16 14 14 17 17 16 17 16 17 16 16 17
37 35 33 31 29 27 27 26 27 15 6 6 5 4 1 4 4 7 5 4 6 8 7 10 12 11 7 3 4 4 4 4 6 6 5 4 15 15 17 25 26 21 16 11 13 17 16 17 17 16 17 16 17 16
35 33 31 30 29 28 28 28 28 17 15 4 0 6 4 6 8 5 8 5 4 5 6 10 9 5 8 7 4 3 5 6 2 4 3 8 9 10 12 19 22 21 19 14 14 17 17 17 17 17 17 16 18 17
32 31 30 29 29 28 28 29 29 19 4 3 5 7 5 5 6 5 8 9 6 7 9 7 2 2 6 8 4 4 3 1 3 5 7 6 11 12 15 16 19 23 23 17 18 16 19 19 17 16 17 17 18 18
29 29 29 27 28 28 29 29 29 10 3 3 5 5 7 5 6 6 3 7 11 9 9 3 3 3 2 4 4 5 3 5 6 6 3 9 16 17 17 9 15 16 16 14 14 17 17 16 17 15 16 17 17 17
29 24 15 26 29 29 29 27 14 4 2 3 6 6 6 7 4 7 7 4 3 3 1 2 2 2 6 4 6 8 6 7 2 1 2 3 9 14 14 12 10 13 14 15 15 16 15 18 19 18 15 15 17 18
29 5 26 31 30 30 31 6 2 4 4 5 4 7 7 6 6 5 5 2 2 1 1 1 3 3 6 4 4 5 3 4 3 2 0 6 7 11 9 8 1 15 18 19 19 18 17 17 18 20 20 16 17 16
11 14 33 34 31 21 4 1 4 6 7 6 5 6 7 6 5 6 3 6 4 3 2 2 1 3 5 4 1 6 4 1 2 2 3 5 8 5 4 5 6 11 18 18 18 17 19 19 18 14 19 18 17 16
15 18 37 39 18 4 4 4 4 5 7 6 8 8 7 7 6 7 5 5 4 4 3 3 4 4 4 1 3 9 11 8 3 3 2 9 5 4 3 7 7 10 13 17 18 13 13 16 14 13 13 14 13 12
20 34 40 37 17 4 5 4 6 4 4 5 8 8 7 6 6 4 5 6 6 5 5 4 6 7 9 9 7 9 7 10 6 3 2 1 2 2 8 8 7 10 11 13 14 16 14 13 11 12 12 13 13 13
18 23 37 19 6 5 5 5 6 5 4 4 8 9 7 8 9 8 7 9 8 9 10 8 10 10 9 8 6 6 6 7 7 4 3 4 3 3 7 8 9 8 10 11 12 13 14 12 13 12 13 12 12 11
9 26 5 5 4 3 3 5 5 6 5 4 6 5 5 8 8 9 8 10 10 10 10 12 11 10 10 9 5 8 8 8 8 3 3 8 6 6 7 7 8 9 10 10 11 12 12 12 13 12 13 13 13 12
18 5 4 4 4 5 4 3 5 5 5 3 6 9 7 5 6 8 5 6 8 9 12 12 15 14 11 4 4 4 1 6 4 3 4 6 7 6 8 8 8 10 11 11 10 11 12 17 16 14 13 13 13 12
12 3 5 5 3 5 4 4 4 3 4 6 5 9 9 7 8 10 12 12 12 10 10 15 11 8 4 4 4 3 5 6 5 5 6 7 8 8 8 8 8 8 10 11 11 12 13 13 17 13 13 14 14 13
5 4 4 5 4 5 5 6 5 6 6 5 8 6 3 3 5 9 12 10 11 10 12 11 9 8 8 6 5 6 7 6 7 8 7 8 9 7 7 8 9 9 10 12 13 14 14 13 13 14 14 14 16 16
6 4 8 9 6 6 6 7 7 8 6 3 4 4 4 5 5 7 6 11 10 9 9 8 9 8 8 9 8 8 7 6 6 7 7 8 10 10 11 12 11 9 10 11 14 17 16 15 15 18 15 17 17 16
5 4 5 5 7 7 4 7 6 7 7 7 4 4 4 5 7 3 3 5 4 4 3 7 9 10 9 7 5 5 5 7 7 6 6 6 7 8 9 11 15 10 13 15 14 15 19 18 17 16 15 13 13 12
3 5 8 8 5 7 6 4 5 5 5 6 3 5 4 4 1 2 1 5 4 6 3 5 6 6 6 7 7 7 6 6 9 8 7 6 6 7 9 8 10 16 12 13 13 14 15 16 16 16 16 14 12 11
3 3 6 5 3 3 4 7 5 3 1 2 2 3 3 2 3 3 2 4 3 4 1 4 4 6 8 7 6 5 8 11 16 19 16 11 10 7 10 12 11 10 11 12 15 15 18 16 16 15 15 12 11 10
4 5 3 7 4 6 3 1 1 2 2 2 3 3 5 4 3 4 4 4 4 1 3 5 6 7 8 9 9 8 3 5 9 12 13 13 11 11 12 13 12 12 12 14 15 15 19 16 16 13 13 11 10 10
7 5 3 4 3 1 2 2 0 2 3 3 3 7 9 5 3 6 7 6 5 6 7 8 7 7 9 9 11 13 10 4 5 7 8 10 11 12 13 13 12 12 13 16 16 15 15 14 13 14 14 14 14 12
4 6 4 5 3 3 3 3 2 2 2 3 3 3 2 3 5 3 5 8 9 9 10 10 10 10 9 7 6 1 9 9 9 11 19 13 11 12 14 13 13 13 15 15 15 15 17 17 13 13 13 15 14 12
3 2 2 3 3 2 3 2 3 3 4 4 4 4 4 2 5 1 2 6 6 7 8 9 8 9 10 10 8 7 11 9 15 16 19 19 20 18 13 12 13 15 17 15 15 15 17 19 15 15 15 14 13 12
Wind_Direction
183 184 186 187 189 191 192 193 196 197 197 199 199 201 203 206 211 218 252 255 219 259 280 291 296 276 266 306 304 353 333 268 142 160 198 237 233 224 245 260 188 192 188 185 212 216 246 259 132 201 94 116 137 128
183 181 183 183 185 187 187 189 193 197 197 197 197 201 202 203 209 211 252 252 230 227 281 309 287 286 285 270 275 343 307 288 242 181 212 237 279 222 214 265 240 204 205 180 185 203 220 227 99 146 156 139 136 116
182 179 179 180 181 182 183 186 188 192 194 195 195 197 200 202 206 206 236 260 244 264 277 255 258 256 247 248 192 242 206 282 19 22 317 242 238 223 212 223 249 230 203 202 213 213 223 176 138 147 155 154 126 127
181 179 176 179 179 179 180 182 186 189 190 192 194 201 205 203 204 206 228 250 254 276 270 265 253 240 226 233 226 207 249 278 327 319 285 270 250 275 265 249 244 236 208 219 229 249 171 180 162 180 149 135 136 139
180 178 176 175 176 177 177 179 182 183 187 191 196 203 209 208 205 210 237 249 249 205 294 308 313 283 273 204 222 221 211 239 252 249 238 269 293 291 290 284 270 249 240 198 227 221 187 189 169 182 144 144 146 150
181 177 175 173 175 175 173 178 180 185 188 192 198 205 206 201 193 205 248 244 243 192 271 269 258 256 242 235 220 228 203 222 203 217 243 241 268 286 275 255 258 267 281 194 232 255 212 195 163 171 149 149 151 150
180 176 173 171 172 171 173 177 181 185 187 193 202 207 204 196 190 197 191 57 315 188 244 260 250 238 233 239 212 198 193 192 209 207 229 260 277 240 251 255 265 246 254 241 224 97 119 166 160 154 149 147 143 141
173 174 170 169 169 169 173 176 181 182 189 199 203 203 200 194 214 239 249 238 10 202 228 254 259 278 251 205 222 171 190 197 193 221 234 224 216 240 246 237 240 262 247 242 147 162 176 141 132 138 144 146 148 149
166 166 172 170 164 168 173 176 176 180 187 188 181 173 159 197 198 226 142 306 222 268 232 225 235 267 213 195 200 178 187 205 173 226 211 184 189 225 243 231 228 246 255 256 163 165 168 159 156 154 152 159 156 153
168 169 162 159 169 171 173 170 171 175 170 156 132 156 197 202 129 122 101 210 220 213 232 236 244 253 315 337 215 187 192 212 175 221 180 230 225 239 242 244 253 237 253 253 174 169 164 177 171 164 166 165 159 151
161 161 165 169 167 170 168 167 168 163 154 164 169 205 224 144 156 181 209 206 184 214 202 220 236 260 275 226 237 267 193 192 189 197 202 208 243 231 221 236 247 260 242 248 190 178 181 177 164 160 162 157 150 147
160 165 163 164 167 167 167 167 167 166 167 172 171 94 95 187 183 210 198 193 195 202 184 202 216 219 241 192 216 222 191 184 231 160 211 241 247 238 214 220 229 235 245 266 196 172 170 168 167 162 154 148 145 141
164 163 163 166 167 168 168 170 172 172 128 156 203 190 212 181 207 210 168 180 199 201 202 209 213 237 212 223 252 201 217 202 125 186 216 246 271 277 243 208 219 224 224 238 176 167 159 154 155 157 146 142 138 138
160 161 165 169 169 167 169 171 172 157 118 195 204 190 218 183 210 201 185 193 201 212 231 234 132 261 222 186 214 263 238 231 225 203 230 283 283 271 261 205 205 210 210 217 178 151 146 149 150 139 141 137 139 139
165 165 168 170 167 168 172 172 169 174 141 234 211 234 216 187 235 211 212 219 209 211 244 172 177 141 297 233 231 226 226 237 227 236 32 339 334 320 316 283 216 200 197 167 147 140 139 139 134 130 131 136 132 124
165 161 175 165 168 170 169 161 172 160 206 248 240 214 232 194 195 214 140 188 324 288 326 82 328 231 233 214 196 210 226 211 190 192 264 341 342 313 302 306 286 182 155 136 128 124 121 130 129 126 114 115 120 124
171 157 175 166 166 166 163 137 130 166 210 220 244 240 241 220 208 206 229 200 114 105 102 86 238 253 307 197 224 209 239 296 109 144 319 48 340 325 330 322 311 125 123 125 122 120 121 119 117 116 116 120 118 119
178 169 161 162 159 162 134 188 190 189 213 225 244 238 215 225 209 229 225 146 181 132 162 181 176 257 282 273 270 3 356 37 13 36 50 41 21 20 324 17 40 114 122 117 120 123 123 127 125 123 125 124 120 127
172 166 161 163 153 126 146 175 198 213 204 205 229 221 214 212 194 212 208 185 170 158 152 198 233 233 252 24 358 335 326 331 344 349 339 34 9 37 52 87 88 93 108 119 126 130 129 126 127 129 130 133 136 139
174 161 160 156 148 171 151 180 183 255 213 190 218 207 221 216 212 209 221 217 211 186 206 229 236 247 258 256 266 286 290 295 291 333 30 241 74 105 126 119 116 123 114 124 122 127 122 123 124 134 138 141 137 137
157 161 155 155 195 235 165 165 178 196 215 195 207 216 217 220 223 222 229 235 234 236 240 243 258 263 254 249 244 263 266 275 275 247 215 176 142 133 119 122 138 141 141 142 139 132 131 134 140 139 138 132 132 128
125 140 139 142 225 215 236 203 182 169 184 200 198 204 228 228 236 239 243 246 249 251 246 248 251 265 262 250 202 213 225 250 265 263 175 136 149 170 147 150 160 152 148 143 137 137 137 139 133 132 129 126 125 124
119 125 123 175 167 175 190 194 190 185 195 203 209 213 217 223 222 232 232 233 246 259 247 243 245 251 256 164 186 200 179 259 230 193 152 162 148 167 156 162 174 153 140 140 141 141 133 129 128 130 128 126 126 128
105 115 152 175 159 159 170 169 185 200 199 215 231 227 244 243 229 228 244 242 236 237 240 230 231 234 188 194 209 187 177 217 193 159 170 161 150 168 173 157 142 140 143 139 137 129 130 131 129 130 129 130 131 131
125 170 181 160 189 139 150 176 193 215 212 208 237 250 273 278 226 225 230 241 232 223 223 221 221 213 216 223 204 210 190 203 163 169 163 163 150 147 150 142 141 145 143 132 137 135 135 134 130 132 135 136 137 137
165 174 176 173 159 171 180 186 197 210 223 236 254 257 212 216 223 238 224 235 235 221 212 200 194 196 209 215 208 191 187 174 163 162 162 167 162 158 161 150 142 142 137 142 142 140 137 136 135 136 137 137 137 135
165 167 173 180 184 184 182 201 199 198 203 210 221 244 208 232 227 235 33 15 346 345 224 184 193 200 209 195 156 147 156 161 169 152 148 149 151 162 159 159 153 145 142 144 146 148 141 139 140 139 135 136 140 141
174 160 161 170 193 196 194 187 184 218 217 223 205 216 246 225 273 53 9 304 307 311 305 172 196 206 174 145 135 141 142 124 116 110 98 84 101 119 124 121 125 133 135 138 143 144 141 139 138 137 138 139 137 137
167 166 150 178 167 185 203 201 224 216 332 310 278 250 263 360 149 158 209 285 295 290 261 113 83 99 107 121 128 141 145 150 149 148 149 144 139 133 126 127 130 131 132 131 132 134 136 134 133 134 133 130 131 134
160 159 154 170 200 208 208 284 63 43 240 264 295 275 254 238 179 176 205 222 236 211 103 109 121 134 143 148 144 146 160 168 165 163 163 158 145 137 136 134 134 136 135 132 128 124 121 120 121 123 124 130 135 139
151 165 155 178 223 124 89 84 344 247 258 262 253 259 268 299 278 218 200 191 170 147 142 148 150 157 164 170 171 162 164 161 154 154 144 132 140 144 140 139 138 139 140 137 135 135 134 132 134 135 140 143 145 151
143 180 171 188 162 141 156 207 225 241 233 240 252 211 257 260 273 205 163 159 166 170 173 170 170 173 177 176 173 184 147 147 145 141 143 142 147 146 139 139 139 141 140 137 135 138 140 139 142 145 146 147 155 155
125 138 142 134 147 204 187 219 220 267 230 248 246 214 212 252 267 295 154 174 177 173 171 164 160 158 159 155 152 140 143 140 147 149 143 146 148 146 141 143 141 140 138 138 141 142 143 143 145 148 151 154 151 150